Location: Bambrugge
(50.9212°N, 3.9299°E)
Time: 04:51:14
(UTC+00:00)

Cosmos 1570 Rocket - Pass Details

Date: 23 May 2024
Orbit: 761 x 786 km, 74.1° (Epoch: 19 June)

Event Time Altitude Azimuth Distance (km) Brightness Sun altitude
Rises 02:51:35 0° 334° (NNW) 3,265 7.5 -7.1°
Reaches altitude 10° 02:53:58 10° 332° (NNW) 2,337 6.7 -6.8°
Maximum altitude 02:59:15 69° 250° (WSW) 837 4.0 -6.3°
Drops below altitude 10° 03:04:31 10° 168° (SSE) 2,335 6.2 -5.6°
Sets 03:06:55 0° 166° (SSE) 3,262 7.0 -5.4°
